Back to catalog

SL-8 DEB

AliveLEO
NORAD 21171·DEBRIS·🇷🇺 Russia

Launched Feb 12, 1991 from Plesetsk Cosmodrome

Loading…

Next Passes (next 24 hours)

TLE

FreshSource: Space-Track

Epoch: Sep 14, 2026, 13:05 UTC

1 21171U 91009AJ  26257.54540696 -.00000016  00000-0 -45967-5 0  9997
2 21171  73.9502 287.7486 0193998 201.7750 233.5641 12.21760678584543

Track SL-8 DEB in real time with AllMySat

Download on the App Store